Погода в Ножкине

Россия / Костромская область     58°49′08″N   42°36′42″E
темп.,
°C
ветер,
м/с
пор.,
м/с
влажн.,
%
обл.,
%
осадки,
мм/ч
давл.,
гПа
погр.,
м
4 марта, чт
чт400:00−3зюз51195100 0.6 997752
03:00−3зюз51196100 1.5 995767
06:00−2зюз4996100 0.6 989550
09:00−2зсз51083100 3.7 9881005
12:00−3сз61090100 0.4 990960
15:00−4ссз5987100 0.5 994916
18:00−7сз31091100 0.1 996453
21:00−11сз239686 0.1 99854
5 марта, пт
пт500:00−12зсз239772 0.0 99939
03:00−13з239761 0.0 100041
06:00−13з369777 0.1 1001181
09:00−11зсз369481 0.1 1002284
12:00−8сз368998 0.1 1003682
15:00−9сз358599 0.2 1006932
18:00−13сз2596100 0.1 100797
21:00−16сз239793 0.1 101046
6 марта, сб
сб600:00−18зсз239826 0.0 101240
03:00−19зсз239822 0.0 101350
06:00−19зсз239856 0.0 101489
09:00−16зсз259567 0.1 1014253
12:00−12зсз248798 0.0 1014662
15:00−11з348599 0.1 1013848
18:00−14з2394100 0.1 101221
21:00−16юз239869 0.1 101131
7 марта, вс
вс700:00−17ююз369876 0.0 1008109
03:00−14ю4119685 0.1 1004298
06:00−12ю61394100 0.2 999628
09:00−10ю61392100 0.9 995740
12:00−7ю61292100 0.6 991856
15:00−5ю51093100 1.5 989879
18:00−5ю4995100 1.1 988660
21:00−10з51190100 1.9 989702
8 марта, пн
пн800:00−12зюз4994100 0.0 989399
03:00−16зюз3795100 0.0 990147
06:00−17зюз2394100 0.0 99131
09:00−14зсз1293100 0.0 993124
12:00−9с2591100 0.1 996504
15:00−9с5891100 0.5 999745
18:00−11с4993100 0.3 1003619
21:00−14с31094100 0.4 1006538